Stündliche Wetter Otradnoe

Heute, 15 April, Donnerstag

Zeit Temperatur Niederschläge Wind Luftdruck Luftfeuchtigkeit
00:00 +8°C° 0 mm 1 m/S 748 mmHg 96%
01:00 +8°C° 0 mm 1 m/S 748 mmHg 95%
02:00 +8°C° 0 mm 1 m/S 748 mmHg 95%
03:00 +8°C° 0 mm 1 m/S 748 mmHg 94%
04:00 +8°C° 0 mm 1 m/S 748 mmHg 94%
05:00 +8°C° 0 mm 1 m/S 748 mmHg 93%
06:00 +9°C° 0 mm 1 m/S 748 mmHg 90%
07:00 +9°C° 0 mm 2 m/S 748 mmHg 87%
08:00 +9°C° 0 mm 2 m/S 748 mmHg 84%
09:00 +10°C° 0.1 mm 3 m/S 748 mmHg 82%
10:00 +10°C° 0.1 mm 3 m/S 747 mmHg 80%
11:00 +11°C° 0.1 mm 4 m/S 747 mmHg 78%
12:00 +10°C° 0.3 mm 4 m/S 747 mmHg 82%
13:00 +8°C° 0.3 mm 4 m/S 747 mmHg 86%
14:00 +7°C° 0.3 mm 4 m/S 747 mmHg 90%
15:00 +7°C° 0.3 mm 4 m/S 747 mmHg 90%
16:00 +6°C° 0.3 mm 4 m/S 746 mmHg 91%
17:00 +6°C° 0.3 mm 4 m/S 746 mmHg 92%
18:00 +6°C° 0.1 mm 4 m/S 746 mmHg 92%
19:00 +6°C° 0.1 mm 4 m/S 746 mmHg 93%
20:00 +5°C° 0.1 mm 3 m/S 746 mmHg 94%
21:00 +7°C° 0.2 mm 3 m/S 745 mmHg 95%
22:00 +7°C° 0.2 mm 2 m/S 745 mmHg 96%
23:00 +7°C° 0.2 mm 2 m/S 745 mmHg 96%

Morgen, 16 April, Freitag

Zeit Temperatur Niederschläge Wind Luftdruck Luftfeuchtigkeit
00:00 +7°C° 0.1 mm 2 m/S 745 mmHg 96%
01:00 +7°C° 0.1 mm 2 m/S 745 mmHg 97%
02:00 +8°C° 0.1 mm 1 m/S 745 mmHg 97%
03:00 +6°C° 0 mm 2 m/S 745 mmHg 97%
04:00 +6°C° 0 mm 2 m/S 745 mmHg 97%
05:00 +5°C° 0 mm 2 m/S 745 mmHg 97%
06:00 +6°C° 0.1 mm 2 m/S 745 mmHg 94%
07:00 +7°C° 0.1 mm 2 m/S 746 mmHg 92%
08:00 +8°C° 0.1 mm 2 m/S 746 mmHg 89%
09:00 +9°C° 0.4 mm 3 m/S 746 mmHg 86%
10:00 +10°C° 0.4 mm 3 m/S 746 mmHg 83%
11:00 +11°C° 0.4 mm 3 m/S 746 mmHg 80%
12:00 +11°C° 0.4 mm 4 m/S 746 mmHg 77%
13:00 +10°C° 0.4 mm 5 m/S 746 mmHg 73%
14:00 +11°C° 0.4 mm 6 m/S 746 mmHg 70%
15:00 +10°C° 0.1 mm 5 m/S 747 mmHg 72%
16:00 +11°C° 0.1 mm 4 m/S 747 mmHg 74%
17:00 +10°C° 0.1 mm 4 m/S 747 mmHg 76%
18:00 +9°C° 0 mm 3 m/S 748 mmHg 81%
19:00 +8°C° 0 mm 2 m/S 748 mmHg 85%
20:00 +8°C° 0 mm 1 m/S 748 mmHg 90%
21:00 +8°C° 0 mm 1 m/S 749 mmHg 91%
22:00 +8°C° 0 mm 1 m/S 749 mmHg 92%
23:00 +8°C° 0 mm 1 m/S 749 mmHg 93%

übermorgen, 17 April, Samstag

Zeit Temperatur Niederschläge Wind Luftdruck Luftfeuchtigkeit
00:00 +8°C° 0 mm 1 m/S 749 mmHg 93%
01:00 +8°C° 0 mm 1 m/S 749 mmHg 93%
02:00 +8°C° 0 mm 1 m/S 749 mmHg 92%
03:00 +8°C° 0 mm 1 m/S 750 mmHg 93%
04:00 +8°C° 0 mm 1 m/S 750 mmHg 93%
05:00 +8°C° 0 mm 1 m/S 750 mmHg 93%
06:00 +8°C° 0 mm 1 m/S 751 mmHg 91%
07:00 +8°C° 0 mm 1 m/S 751 mmHg 90%
08:00 +9°C° 0 mm 1 m/S 751 mmHg 88%
09:00 +10°C° 0.1 mm 1 m/S 751 mmHg 82%
10:00 +11°C° 0.1 mm 1 m/S 752 mmHg 76%
11:00 +12°C° 0.1 mm 2 m/S 752 mmHg 70%
12:00 +12°C° 0.2 mm 2 m/S 752 mmHg 69%
13:00 +12°C° 0.2 mm 2 m/S 752 mmHg 68%
14:00 +12°C° 0.2 mm 3 m/S 752 mmHg 67%
15:00 +13°C° 0.1 mm 2 m/S 752 mmHg 67%
16:00 +12°C° 0.1 mm 2 m/S 752 mmHg 67%
17:00 +12°C° 0.1 mm 2 m/S 752 mmHg 67%
18:00 +10°C° 0 mm 2 m/S 752 mmHg 73%
19:00 +9°C° 0 mm 2 m/S 753 mmHg 78%
20:00 +7°C° 0 mm 2 m/S 753 mmHg 84%
21:00 +7°C° 0 mm 2 m/S 753 mmHg 84%
22:00 +7°C° 0 mm 2 m/S 753 mmHg 85%
23:00 +6°C° 0 mm 2 m/S 753 mmHg 85%

18 April, Sonntag

Zeit Temperatur Niederschläge Wind Luftdruck Luftfeuchtigkeit
00:00 +6°C° 0 mm 2 m/S 753 mmHg 86%
01:00 +6°C° 0 mm 2 m/S 753 mmHg 86%
02:00 +6°C° 0 mm 1 m/S 753 mmHg 86%
03:00 +6°C° 0 mm 1 m/S 753 mmHg 87%
04:00 +5°C° 0 mm 1 m/S 753 mmHg 89%
05:00 +5°C° 0 mm 1 m/S 753 mmHg 90%
06:00 +6°C° 0 mm 1 m/S 753 mmHg 84%
07:00 +7°C° 0 mm 1 m/S 754 mmHg 78%
08:00 +8°C° 0 mm 1 m/S 754 mmHg 72%
09:00 +10°C° 0 mm 1 m/S 754 mmHg 66%
10:00 +12°C° 0 mm 1 m/S 754 mmHg 59%
11:00 +13°C° 0 mm 1 m/S 754 mmHg 53%
12:00 +14°C° 0 mm 1 m/S 754 mmHg 50%
13:00 +15°C° 0 mm 1 m/S 754 mmHg 47%
14:00 +15°C° 0 mm 1 m/S 754 mmHg 45%
15:00 +15°C° 0 mm 2 m/S 753 mmHg 47%
16:00 +14°C° 0 mm 3 m/S 753 mmHg 49%
17:00 +14°C° 0 mm 3 m/S 753 mmHg 51%
18:00 +13°C° 0 mm 3 m/S 753 mmHg 60%
19:00 +11°C° 0 mm 3 m/S 754 mmHg 69%
20:00 +10°C° 0 mm 3 m/S 754 mmHg 79%
21:00 +9°C° 0 mm 3 m/S 754 mmHg 81%
22:00 +9°C° 0 mm 3 m/S 754 mmHg 83%
23:00 +9°C° 0 mm 3 m/S 754 mmHg 84%

19 April, Montag

Zeit Temperatur Niederschläge Wind Luftdruck Luftfeuchtigkeit
00:00 +9°C° 0 mm 3 m/S 753 mmHg 86%
01:00 +9°C° 0 mm 3 m/S 753 mmHg 87%
02:00 +9°C° 0 mm 3 m/S 753 mmHg 88%
03:00 +8°C° 0 mm 3 m/S 753 mmHg 89%
04:00 +8°C° 0 mm 3 m/S 753 mmHg 91%
05:00 +8°C° 0 mm 3 m/S 752 mmHg 93%
06:00 +9°C° 0 mm 3 m/S 752 mmHg 90%
07:00 +8°C° 0 mm 4 m/S 752 mmHg 87%
08:00 +10°C° 0 mm 4 m/S 752 mmHg 83%
09:00 +10°C° 0.4 mm 5 m/S 751 mmHg 82%
10:00 +10°C° 0.4 mm 5 m/S 751 mmHg 81%
11:00 +10°C° 0.4 mm 5 m/S 751 mmHg 79%
12:00 +11°C° 0.1 mm 6 m/S 751 mmHg 74%
13:00 +13°C° 0.1 mm 6 m/S 750 mmHg 69%
14:00 +12°C° 0.1 mm 7 m/S 750 mmHg 64%
15:00 +11°C° 0.3 mm 7 m/S 749 mmHg 68%
16:00 +11°C° 0.3 mm 7 m/S 749 mmHg 72%
17:00 +10°C° 0.3 mm 7 m/S 749 mmHg 76%
18:00 +10°C° 0.5 mm 6 m/S 748 mmHg 80%
19:00 +9°C° 0.5 mm 6 m/S 748 mmHg 84%
20:00 +8°C° 0.5 mm 5 m/S 748 mmHg 88%
21:00 +8°C° 0.4 mm 6 m/S 747 mmHg 88%
22:00 +8°C° 0.4 mm 6 m/S 746 mmHg 88%
23:00 +8°C° 0.4 mm 7 m/S 746 mmHg 89%

20 April, Dienstag

Zeit Temperatur Niederschläge Wind Luftdruck Luftfeuchtigkeit
00:00 +8°C° 0.3 mm 7 m/S 745 mmHg 89%
01:00 +8°C° 0.3 mm 7 m/S 744 mmHg 90%
02:00 +7°C° 0.3 mm 8 m/S 744 mmHg 90%
03:00 +7°C° 1.1 mm 8 m/S 743 mmHg 90%
04:00 +6°C° 1.1 mm 8 m/S 742 mmHg 91%
05:00 +6°C° 1.1 mm 8 m/S 742 mmHg 91%
06:00 +6°C° 1.6 mm 8 m/S 741 mmHg 91%
07:00 +5°C° 1.6 mm 8 m/S 740 mmHg 91%
08:00 +5°C° 1.6 mm 8 m/S 740 mmHg 91%
09:00 +4°C° 0.5 mm 8 m/S 739 mmHg 91%
10:00 +4°C° 0.5 mm 8 m/S 739 mmHg 91%
11:00 +2°C° 0.5 mm 8 m/S 738 mmHg 91%
12:00 +2°C° 0.5 mm 8 m/S 738 mmHg 92%
13:00 +3°C° 0.5 mm 7 m/S 737 mmHg 93%
14:00 +2°C° 0.5 mm 7 m/S 737 mmHg 94%
15:00 +2°C° 1.4 mm 7 m/S 736 mmHg 94%
16:00 +3°C° 1.4 mm 6 m/S 736 mmHg 94%
17:00 +3°C° 1.4 mm 6 m/S 735 mmHg 94%
18:00 +3°C° 0.2 mm 6 m/S 735 mmHg 94%
19:00 +3°C° 0.2 mm 5 m/S 735 mmHg 95%
20:00 +5°C° 0.2 mm 5 m/S 735 mmHg 95%
21:00 +5°C° 0.2 mm 5 m/S 735 mmHg 95%
22:00 +6°C° 0.2 mm 4 m/S 734 mmHg 95%
23:00 +6°C° 0.2 mm 4 m/S 734 mmHg 96%
Mehr zeigen

Wir brauchen deine Erlaubnis

Meteoprog und unser Service Anbieter werden persönliche Daten aufbewahren, so wie Cookies, Geräte Bezeichnung oder ähnliche Technologien von deinem Gerät und Prozess, so wie Persönliche Daten Inhalte und Werbungen, genauso wie social Media und den Verkehr zu analysieren.

  • Aufbewahrung und/oder Zugang zu deiner Geräte Informationen.

    Cookies, Geräte Bezeichnung oder andere Informationen, können aufbewahrt oder Zugang zu deinem Gerät erhalten, für den Grund, der oben angegeben wird.

  • Personalisierte Werbung und Inhalte, Messungen, Einblick in das Publikum und Produkt Entwicklung.

    Werbungen und Inhalte können personalisiert werden, basierend auf ein Profil. Mehr Daten können besser personalisierte Werbungen und Inhalte hinzufügen. Werbung und Inhalte können gezeigt und gemessen werden. Einblicke über das Publikum, welche die Werbung gesehen haben und den Inhalt, können abgeleitet werden. So wie Daten können genutzt werden, um es zu verbessern oder die Benutzer Erfahrung zu verbessern das System und die Software.

Wenn du “Ich stimme zu” klickst, erlaubst du uns, die Cookies zu benutzen die Geräte Bezeichnung, den Web oder ähnliche Technologien zu benutzen. Deine Settings, können in deinem Gerät bei deinem Browser geändert werden.

Für den bestimmten Zweck, berechtigten Interessen beruhen darauf, mehr als auf den Inhalt. Du kannst mehr darüber in unseren Privaten und Cookie Politik lesen.